Regional Weather Roundup
Issued by NWS Charleston, SC

Current Version | Previous Version | Graphics & Text | Print | Product List | Glossary On
Versions: 1 2 3 4 5 6 7 8 9 10 11 12 13 14 15 16 17 18 19 20 21 22 23 24 25 26 27 28 29 30 31 32 33 34 35 36 37 38 39 40 41 42 43 44 45 46 47 48 49 50
000
ASUS42 KCHS 161727
RWRCHS

Regional Weather Roundup
National Weather Service Charleston SC
1200 PM EST SAT DEC 16 2017

NOTE: "fair" indicates few or no clouds below 12,000 feet with no
significant weather and/or obstructions to visibility.

Not all stations are quality controlled. Use data with caution,
especially dewpoint observations.

SCZ027-030-031-034>040-042>050-161800-
...Southeast South Carolina...

CITY           SKY/WX    TMP DP  RH WIND       PRES   REMARKS
N Charleston   MOSUNNY   50  30  46 SE3       30.30F
Waterfront Prk   N/A     51  35  54 E7        30.17F
Mount Pleasant FAIR      52  34  50 SE6       30.29F
Johns Island   FAIR      50  36  57 E7        30.29F
Pinopolis        N/A     45  28  53 VRB3      30.24F
Moncks Corner  FAIR      48  25  40 NE5       30.29F
Summerville    FAIR      50  30  46 CALM      30.31F
Beaufort MCAS  MOSUNNY   49  36  61 CALM      30.31F
Beaufort Arpt  FAIR      48  34  57 E3        30.30F HAZE
Hilton Head Is SUNNY     46  34  61 N5        30.32F
Walterboro     SUNNY     48  30  49 S5        30.30F
Allendale      FAIR      48  28  46 CALM      30.29F

...Southern Midlands and Pee Dee...

CITY           SKY/WX    TMP DP  RH WIND       PRES   REMARKS
Georgetown     FAIR      46  23  39 CALM      30.30F
Kingstree      FAIR      46  23  39 CALM      30.29F
Orangeburg     SUNNY     47  26  44 E6        30.31F
Barnwell         N/A     48  28  46 CALM      30.30F
Aiken          FAIR      46  27  46 S7        30.31F
Manning        FAIR      46   5  18 MISG      30.29F
Columbia       MOSUNNY   48  27  44 S3        30.30F
Sumter         SUNNY     48  23  37 NE3       30.28F
Florence       SUNNY     47  22  37 CALM      30.31F
Myrtle Beach   SUNNY     47  24  40 VRB5      30.31F
N Myrtle Beach SUNNY     48  24  39 CALM      30.29F

$$

GAZ063-065-086>088-099>101-113>116-118-119-134>141-150-161800-
...Southeast Georgia...

CITY           SKY/WX    TMP DP  RH WIND       PRES   REMARKS
Savannah Arpt  MOSUNNY   48  29  47 SW3       30.32F
Hunter AAF     SUNNY     49  28  43 W3        30.31S
Fort Stewart   MOSUNNY   50  27  41 CALM        N/A
Statesboro     CLOUDY    49  24  37 CALM      30.29F HAZE
Sylvania       SUNNY     48  32  52 CALM      30.31F
Claxton        FAIR      50  31  47 CALM      30.31F

...CSRA, Central and far Southeast Georgia...

CITY           SKY/WX    TMP DP  RH WIND       PRES   REMARKS
Thomson        SUNNY     46  24  43 CALM      30.33F
Augusta-Bush   SUNNY     47  27  45 S6        30.31F
Augusta-Daniel SUNNY     46  25  43 VRB3      30.30F
Swainsboro     FAIR      46  28  49 CALM      30.30F
Vidalia        CLOUDY    50  30  46 CALM      30.30F
Eastman        FAIR      51  15  24 CALM      30.33F
Hazlehurst     FAIR      51  13  21 CALM      30.29F
Alma           SUNNY     52  28  39 CALM      30.31F
Waycross       SUNNY     54  23  30 N6        30.31F
Jesup          FAIR      54  25  32 CALM      30.32F
Baxley         FAIR      48  28  46 CALM      30.30F
Brunswick      SUNNY     52  28  40 NE6       30.32F
Saint Simons   SUNNY     54  31  41 MISG      30.31F

$$

SCZ027-028-034-036>038-045-046-048>050-GAZ119-141-161800-
...Lake and Supplemental Coastal Observations...

STATION/POSITION TIME  TEMP    WIND        PRES    WAVE   SWELL
                       AIR SEA DIR/SP/G            HT/PER HT/PER/DIR
                 (UTC) (F)     (DEG/KT/KT) (MB)    (FT/S) (FT/S/D)
Winyah Bay       1645   45      90/  6     1027.0S
Lake Murray      1650   46     190/  3/  5 1025.4F
ACE Basin NERRS  1645   51      70/  2     1026.0F
Fort Pulaski     1700   44 53  120/  3/  5 1026.6
Sapelo Island    1700   53     360/  5     1026.0

$$

ANZ835-935-AMZ111-154-330-350-352-354-370-450-454-472-161800-
...C-MAN and Buoy Observations...

STATION/POSITION TIME  TEMP    WIND        PRES    WAVE   SWELL
                       AIR SEA DIR/SP/G            HT/PER HT/PER/DIR
                 (UTC) (F)     (DEG/KT/KT) (MB)    (FT/S) (FT/S/D)
Buoy 41004       1710   54 72   40/  8/ 12 1025.2
Buoy 41008       1650   47 58   20/ 10/ 12 1026.4F   2/ 3
Folly Beach CMAN 1700   47      50/ 11/ 12 1026.6F
Capers Nearshore 1708   45 55   60/ 12/ 17 1025.7F


STATION/POSITION TIME  TEMP    WIND        PRES    WAVE   SWELL
                       AIR SEA DIR/SP/G            HT/PER HT/PER/DIR
                 (UTC) (F)     (DEG/KT/KT) (MB)    (FT/S) (FT/S/D)
5E St. Marys GA  1700      62                N/A     2/ 4
Frying Pan Buoy  1710   47 68   10/ 10/ 12 1025.2
Buoy 41025       1710   44 72  330/  6/ 10 1024.1
Cape Lookout NC  1700          300/  5/  6 1025.1F
Buoy 41002       1650   63 74  340/ 12/ 14 1022.8F   6/ 8   5/290/ 8
Buoy 41010       NOT AVBL
St Augustine FL  1700   55 62   10/ 13/ 15 1025.8F


$$



USA.gov is the U.S. government's official web portal to all federal, state and local government web resources and services.